Wind_Speed
24 22 21 19 18 17 18 19 20 20 20 20 20 19 18 17 15 14 14 14 13 13 12 12 13 13 13 13 14 15 17 18 18 19 21 22 23 22 21 19 18 17 16 15 14 13 13 13 13 13 13 13 13 13 13 13 13 14 15 16 17 18 18 17 16 13 12 12 14 16 17 16 17 17 18 19 19 19 20 20 21 21 21 19 17
24 22 20 19 18 19 19 19 19 19 20 19 19 18 16 15 14 14 13 13 13 12 12 12 12 12 12 12 14 16 17 18 18 20 21 23 23 21 19 18 17 16 15 14 13 12 12 12 12 13 13 13 14 14 13 13 14 14 15 16 17 18 19 18 17 14 12 11 12 15 16 15 15 15 16 18 19 19 19 20 21 22 22 21 20
23 21 20 19 19 20 20 19 19 19 19 19 18 16 15 15 14 13 13 13 13 12 12 12 12 11 11 11 13 15 17 17 18 20 22 22 22 20 18 17 16 15 14 12 12 11 11 11 12 13 13 14 14 14 14 14 15 15 16 17 18 19 19 19 17 15 12 11 11 14 16 14 14 14 15 16 17 18 18 18 20 21 22 22 21
21 20 20 20 21 21 20 19 19 19 19 18 17 15 14 14 14 13 13 13 13 12 11 11 11 11 10 10 12 15 16 17 19 20 21 21 20 19 18 16 15 14 13 11 11 11 11 11 12 13 13 14 14 14 15 15 16 16 16 17 17 19 20 20 19 15 13 12 11 14 15 14 14 14 15 15 16 16 16 17 19 20 21 22 21
20 20 20 21 21 20 19 18 19 19 18 17 16 15 14 14 14 13 13 13 13 12 11 10 10 10 10 11 12 14 15 17 18 19 19 20 19 18 17 16 14 12 11 10 10 10 10 11 12 13 14 14 14 14 15 15 16 16 16 17 17 19 20 21 19 17 14 12 11 14 15 14 14 14 14 14 14 15 15 16 18 20 21 21 20
21 21 22 22 21 19 18 17 18 18 17 16 16 14 13 13 13 12 12 12 12 12 10 10 9 9 10 11 12 14 15 16 18 18 18 18 18 17 16 15 13 11 10 9 9 9 10 11 12 13 14 14 14 14 15 15 16 16 17 17 18 18 20 20 19 17 15 12 12 15 16 15 14 14 14 14 14 14 14 16 18 19 20 20 19
23 23 22 21 19 17 16 16 17 17 16 15 15 14 13 12 11 11 11 11 11 10 10 9 9 9 9 10 12 13 15 15 16 17 17 17 17 17 16 15 13 11 9 8 8 9 10 11 12 13 14 14 14 15 16 16 17 17 17 17 17 18 19 19 18 16 14 13 14 15 15 14 14 14 13 14 14 14 15 16 18 19 19 19 17
24 23 22 20 17 16 16 15 15 15 15 15 14 14 13 12 11 11 11 11 10 9 9 9 9 9 9 10 12 13 13 14 15 17 17 16 16 16 15 14 12 10 9 7 8 8 9 10 11 13 14 14 15 16 17 17 18 18 17 17 17 18 18 18 17 14 13 14 15 15 16 15 15 14 14 14 14 15 15 17 17 18 18 17 15
23 22 20 18 17 16 16 15 15 15 15 15 14 13 12 11 11 11 11 11 10 8 8 8 8 8 8 10 11 12 12 13 14 15 16 16 15 14 14 13 12 10 8 6 6 6 7 9 10 11 13 14 15 16 17 18 18 17 17 17 17 18 19 18 16 14 13 15 16 16 16 16 15 14 14 14 15 16 17 17 17 16 15 14 13
22 20 19 17 17 16 15 15 14 14 14 14 13 12 11 11 11 11 11 11 10 8 8 8 7 6 6 8 10 11 12 12 13 13 14 14 14 13 13 12 11 9 7 6 5 5 6 8 9 11 12 13 14 15 16 17 17 17 18 18 18 19 19 18 16 13 13 15 16 16 16 16 15 14 14 15 17 18 18 16 15 14 13 12 11
20 20 19 18 17 16 15 15 14 13 13 13 12 12 11 10 10 11 11 11 10 9 8 8 7 6 4 6 8 10 10 11 11 11 11 11 12 11 10 10 9 8 7 5 4 4 5 7 9 10 11 12 13 14 15 16 17 18 18 19 19 20 20 19 16 14 14 16 16 16 16 16 14 14 14 16 18 19 18 16 14 12 12 11 10
20 19 19 18 17 16 15 15 14 13 13 13 12 12 11 11 10 10 10 10 10 10 9 9 9 7 5 4 6 8 8 9 9 9 8 7 8 9 9 8 8 7 5 4 3 3 5 7 9 10 11 12 13 13 14 15 16 17 18 18 19 19 19 19 17 15 15 16 16 15 16 15 14 14 15 17 18 18 17 15 13 12 11 10 9
21 19 18 18 18 17 17 16 15 14 14 13 13 12 12 11 10 10 10 10 11 10 9 9 9 8 6 5 6 7 7 7 7 7 6 5 5 6 7 7 6 5 4 3 2 3 5 7 9 10 11 11 12 13 14 15 15 16 17 17 18 19 19 19 17 16 16 16 15 15 15 15 14 14 16 18 18 18 17 15 13 12 11 10 9
21 19 19 19 19 19 18 18 17 16 15 14 13 13 12 12 11 10 10 10 11 11 10 9 8 7 7 7 6 7 7 7 6 6 6 5 3 3 4 5 4 4 3 2 2 2 4 6 8 10 10 11 12 13 14 14 15 15 15 16 17 18 19 18 17 16 16 16 15 15 15 15 14 14 16 18 18 18 18 16 13 11 10 9 9
20 19 19 19 19 19 18 18 17 16 15 14 14 13 13 13 12 11 10 10 11 11 10 10 9 8 8 8 8 7 7 7 7 6 5 5 4 2 2 2 2 2 2 1 1 2 4 6 8 9 10 11 12 13 13 14 15 15 15 16 16 17 18 18 17 16 15 15 14 14 14 14 13 14 16 18 18 18 18 16 13 11 9 8 8
19 19 19 19 19 19 18 17 16 15 15 14 14 13 13 13 13 12 11 11 11 11 11 11 10 9 9 9 9 9 8 7 6 6 5 5 4 2 2 1 1 0 1 1 2 3 4 6 8 9 10 10 11 12 13 14 14 14 15 15 16 16 17 17 16 15 15 14 13 13 13 13 13 14 16 17 18 18 17 15 12 10 8 8 8
20 19 19 19 18 17 16 16 15 14 14 14 13 12 12 13 13 12 12 11 11 11 12 12 11 10 9 9 10 10 9 8 7 5 5 5 4 3 2 2 1 2 2 2 3 4 5 7 8 9 10 11 12 12 13 13 13 13 14 14 16 16 16 16 15 14 14 13 12 12 12 12 12 13 15 17 18 17 16 15 12 9 8 7 8
20 19 19 18 17 16 15 14 14 13 13 13 12 12 12 12 12 11 11 11 12 12 12 13 12 11 10 9 10 10 10 9 7 6 5 5 4 3 2 1 2 2 3 4 4 6 7 8 8 9 9 10 12 12 12 12 12 13 13 15 15 16 16 15 14 14 13 12 11 11 12 11 11 13 15 16 17 17 16 15 12 9 8 7 8
19 18 17 16 15 14 13 13 13 13 12 12 11 11 11 11 11 11 11 11 11 11 12 12 12 11 10 10 10 10 10 9 8 7 6 5 5 4 3 2 2 2 3 4 5 7 8 8 8 8 9 10 11 11 12 12 12 13 14 15 16 16 15 15 13 13 12 11 11 11 11 11 11 12 14 16 17 17 16 15 12 10 8 7 8
17 17 15 13 13 13 12 11 12 12 12 11 11 11 10 10 10 11 11 11 11 10 10 11 12 11 11 11 10 10 10 10 9 8 7 6 6 5 4 3 3 2 3 4 5 7 9 9 8 8 8 10 11 12 12 13 13 13 14 16 16 16 15 14 12 11 10 10 10 10 10 10 10 12 14 16 17 16 16 15 12 10 8 7 8
16 15 14 13 12 11 11 11 11 11 11 10 10 9 10 9 9 10 11 12 12 11 10 11 12 12 12 11 11 10 9 9 9 9 9 7 6 6 5 4 4 4 4 5 6 8 9 9 7 7 8 9 11 12 13 13 14 15 16 16 15 15 14 12 11 10 9 9 9 9 9 9 9 10 13 15 16 15 15 15 13 11 9 8 8
15 14 13 12 11 10 9 10 10 9 8 8 8 8 8 8 9 9 10 11 12 12 12 12 12 13 12 12 11 10 9 8 7 7 8 8 7 6 5 4 4 5 6 7 8 9 10 10 9 8 8 10 12 13 14 14 15 15 15 15 14 14 12 10 9 9 8 8 7 8 8 8 8 9 12 14 15 15 15 15 14 12 10 8 8
13 12 11 11 10 9 8 8 8 7 7 7 6 7 7 7 7 9 10 12 12 13 13 13 13 13 13 12 11 11 10 9 8 7 7 8 7 7 7 5 5 6 7 8 9 10 10 11 11 10 10 11 13 14 15 15 15 14 14 14 14 12 10 8 7 7 7 6 6 6 7 7 7 8 10 12 13 14 14 14 14 13 11 9 8
12 11 9 9 8 8 7 7 6 6 6 5 4 5 6 6 6 7 9 10 12 12 12 12 13 14 13 12 11 10 10 10 9 9 9 9 8 7 7 7 7 7 8 9 10 10 11 12 12 12 12 12 12 13 15 15 14 13 13 13 12 10 8 6 6 6 5 5 5 5 6 6 6 6 8 10 12 12 12 13 13 12 11 10 8
10 9 8 8 7 7 6 5 5 4 4 3 3 4 4 5 5 6 7 8 10 11 11 12 12 13 12 12 11 10 9 9 10 10 10 10 9 8 8 8 9 8 9 10 11 11 12 13 13 13 13 13 13 14 14 14 14 13 12 11 10 8 6 5 4 4 4 4 3 4 5 5 5 5 6 8 9 10 10 11 11 11 10 9 9
9 9 9 8 7 7 6 5 4 3 2 1 1 2 2 3 4 4 4 5 6 8 9 10 11 12 12 11 10 10 10 10 10 10 10 10 10 10 10 10 10 10 10 11 11 12 13 14 14 14 14 14 14 14 14 14 13 12 11 10 9 7 5 4 4 3 4 3 2 3 4 5 4 4 4 4 6 7 8 8 9 9 9 9 8
10 10 9 8 7 6 5 4 3 2 0 2 1 1 1 2 3 3 3 3 4 5 7 8 9 10 10 10 10 10 10 10 10 10 9 9 10 10 10 11 12 12 12 12 13 14 14 14 15 14 14 14 14 14 14 13 12 11 10 9 8 6 5 4 3 3 2 2 2 3 5 5 5 4 3 2 3 5 6 7 7 7 7 8 8
10 9 8 6 5 4 3 2 2 1 2 2 2 2 2 1 2 2 3 3 3 4 5 7 7 6 7 7 7 9 9 8 8 8 8 9 9 10 11 12 12 12 12 12 13 13 12 13 13 13 13 13 12 12 12 11 10 10 8 7 6 5 3 2 2 2 2 1 2 3 5 5 5 4 3 3 2 3 4 4 5 5 6 6 7
9 8 7 6 5 4 3 3 4 4 3 3 1 1 1 1 2 1 2 2 2 3 5 5 5 5 5 4 5 7 8 8 7 7 8 9 10 10 11 11 11 11 11 10 10 10 10 11 12 11 10 11 11 11 11 10 9 9 7 6 5 4 2 1 2 1 1 1 2 3 4 5 5 5 4 3 3 3 3 3 3 4 4 5 6
9 8 7 6 6 6 6 6 6 5 4 2 0 1 1 2 2 2 1 1 1 2 3 4 4 4 4 4 4 5 6 6 6 6 7 8 8 9 10 10 10 10 10 9 8 8 8 9 10 10 9 9 10 10 10 9 9 8 7 6 5 3 1 1 2 1 0 1 2 3 4 5 6 6 5 4 4 5 5 5 5 5 5 6 6
10 9 9 9 8 8 8 8 8 6 4 2 0 1 2 2 2 2 2 1 1 0 1 2 3 3 3 4 4 4 5 5 5 5 6 7 7 8 8 8 9 9 10 10 9 8 9 9 8 10 10 8 8 9 9 9 8 8 7 6 4 3 2 3 3 2 1 1 2 3 4 5 6 6 5 4 5 6 6 7 7 8 8 8 8
12 12 11 11 10 10 9 8 7 5 3 2 1 1 2 2 2 2 2 1 1 0 0 1 2 2 3 4 4 4 5 5 6 6 6 7 8 8 8 9 9 10 10 11 11 9 10 10 9 9 10 10 9 10 10 8 8 7 7 6 5 4 3 3 2 2 1 1 2 3 3 4 5 5 5 5 5 6 7 8 9 9 10 10 10
15 14 13 12 11 10 8 7 5 4 3 2 3 3 2 2 2 2 2 1 1 0 0 1 2 3 3 3 4 4 5 5 6 7 8 9 9 10 10 10 10 11 12 12 12 11 10 12 12 10 10 11 11 11 11 10 8 7 6 6 5 4 4 3 3 3 3 2 2 2 3 3 4 5 6 6 7 7 7 8 9 10 10 11 11
15 14 13 12 11 9 7 5 4 3 3 3 4 4 4 4 3 3 2 2 2 2 1 2 2 3 4 5 5 5 6 7 7 8 9 11 12 12 12 12 12 13 13 13 13 13 11 11 12 13 12 11 11 11 11 11 10 8 7 6 6 5 4 4 4 4 4 3 3 3 4 4 5 6 7 7 8 8 8 8 9 9 10 11 12
12 14 12 11 11 9 7 5 4 4 5 5 5 5 6 6 5 5 4 4 4 4 4 4 4 5 6 6 7 7 8 8 9 10 10 11 12 13 13 14 14 13 14 14 14 14 12 10 10 11 11 11 11 10 10 11 11 10 8 7 7 6 5 5 5 5 5 5 5 5 5 6 7 8 8 9 9 9 10 10 10 10 11 12 13
13 16 14 12 11 10 9 7 5 5 6 6 6 6 7 6 6 6 6 6 6 6 7 7 7 7 7 8 8 8 9 9 10 11 11 12 12 13 13 13 13 13 13 13 13 13 12 10 9 9 10 11 10 9 10 10 10 9 9 7 7 6 6 6 6 6 7 7 7 7 7 8 8 10 10 11 11 12 12 12 12 12 13 13 14
14 17 16 14 14 11 9 8 8 7 7 7 7 7 7 7 7 7 7 7 8 8 9 8 8 8 9 9 9 10 10 10 11 12 12 13 14 14 14 14 14 13 12 12 12 12 12 12 10 9 10 11 10 9 10 11 10 9 9 8 7 7 7 6 7 8 9 9 9 9 9 10 11 12 13 14 14 15 15 15 14 14 15 15 15
13 14 15 16 16 14 11 9 9 9 8 8 9 9 9 9 9 9 9 9 9 10 9 8 9 10 10 10 10 11 11 11 11 12 13 14 15 16 16 16 16 15 15 14 14 14 14 14 13 12 11 11 11 11 11 11 11 11 10 10 9 9 10 9 8 9 11 12 12 12 12 13 14 15 16 17 17 18 18 18 17 17 17 16 16
15 14 15 16 17 16 14 12 10 9 10 11 12 12 12 11 11 11 10 11 11 11 10 9 10 12 11 11 11 12 12 11 11 12 13 14 15 15 15 15 16 16 16 17 17 17 17 16 16 15 13 12 12 12 12 12 12 13 13 13 12 12 12 12 11 11 13 14 15 16 16 17 18 18 19 19 19 20 20 20 19 19 19 18 16
17 17 17 17 18 17 16 14 12 11 12 13 14 14 14 13 12 12 12 12 12 12 11 11 13 14 13 13 13 13 13 13 12 12 13 14 14 14 14 14 15 15 15 15 16 17 18 18 18 17 17 15 13 14 14 14 14 15 15 16 17 16 16 16 15 14 16 17 19 19 20 20 21 21 20 20 20 20 21 21 20 20 19 18 17
18 19 19 19 19 18 17 15 15 14 14 14 15 16 16 15 14 14 14 14 13 13 13 13 14 15 16 16 15 15 16 16 15 14 14 14 15 15 15 15 15 15 14 14 14 15 16 17 17 17 17 17 16 16 16 17 17 17 17 18 19 19 20 20 20 18 18 21 23 24 23 22 21 21 20 20 19 19 19 20 19 20 20 19 18
21 21 20 21 20 20 19 18 18 17 17 16 17 18 18 17 16 16 16 16 15 14 14 15 16 17 18 18 17 18 18 18 18 17 17 16 17 17 16 16 16 15 14 13 13 14 16 16 16 16 16 16 16 15 16 18 19 19 19 19 20 21 21 23 24 22 20 20 23 25 24 22 21 21 21 20 20 19 18 18 18 19 20 20 20
23 23 23 23 22 22 22 21 21 20 19 19 19 19 20 19 18 17 17 17 17 17 17 18 18 19 19 19 19 20 21 20 20 20 20 19 19 19 18 17 16 15 14 14 14 15 15 16 16 16 16 17 16 15 15 17 18 19 20 19 20 20 21 22 24 24 21 19 20 22 23 22 21 21 21 21 21 20 20 19 19 20 20 21 21
24 24 24 23 23 23 23 24 23 23 22 22 21 22 22 21 20 19 19 18 19 20 20 20 21 21 21 22 22 23 23 23 22 22 22 22 21 21 21 20 18 17 16 16 17 17 17 17 18 18 18 19 19 17 17 18 19 19 20 20 19 20 20 21 22 24 24 21 20 22 23 22 22 22 22 23 23 23 22 22 22 22 22 23 23
26 26 26 25 24 24 25 25 26 25 25 25 25 25 25 24 23 23 22 22 22 23 23 23 23 24 24 24 25 25 25 25 25 25 24 24 24 23 23 23 21 21 20 20 20 20 20 20 21 21 21 21 21 20 19 20 20 21 22 22 22 22 22 22 23 24 25 24 23 24 25 25 24 24 26 26 27 27 26 26 26 26 26 26 26
28 28 28 28 27 27 27 27 27 27 27 27 27 26 26 26 25 25 24 25 26 26 26 26 25 25 26 26 26 26 26 26 26 26 26 26 26 26 25 25 24 23 23 23 23 23 23 23 23 24 24 24 24 24 23 23 23 24 24 24 25 25 26 26 26 26 25 24 24 26 28 28 27 26 28 30 30 31 30 29 29 29 29 29 28
30 30 30 30 30 29 29 29 29 29 28 28 28 28 27 27 26 26 25 26 26 27 27 27 27 26 26 27 27 27 27 27 27 27 28 28 27 27 27 26 26 26 26 26 26 26 25 25 25 26 26 26 26 26 26 26 26 27 26 26 27 27 28 29 29 29 28 26 25 27 28 30 30 30 31 32 33 33 33 32 32 32 32 31 31
30 30 31 31 31 31 31 30 30 30 30 30 30 30 29 28 28 27 27 27 27 27 27 27 27 27 27 27 27 27 28 28 28 28 28 28 28 28 28 27 27 28 28 29 28 28 28 27 27 27 27 26 26 26 27 27 27 28 28 29 29 29 30 30 31 32 30 28 28 29 28 29 31 32 33 35 35 35 35 35 34 33 33 33 32
31 31 32 33 32 32 31 31 31 31 31 31 31 31 31 30 29 29 29 28 28 28 28 28 28 29 29 29 29 29 28 28 29 29 29 29 29 29 29 28 29 29 30 30 29 29 29 29 29 29 28 27 27 27 27 27 28 29 30 31 31 32 32 32 32 33 32 30 30 31 30 30 31 32 34 35 36 36 36 36 35 34 33 33 34
29 30 32 34 34 33 31 31 31 31 31 32 32 33 32 31 30 30 29 28 28 28 28 29 30 30 30 30 30 30 30 31 31 30 30 30 30 30 30 31 32 32 32 32 32 31 31 31 31 31 30 30 29 29 29 29 29 30 31 33 34 34 35 34 34 35 33 32 33 34 33 32 33 33 34 35 35 36 37 37 37 37 37 38 38
29 29 32 35 35 34 33 32 32 32 32 32 33 33 33 33 32 31 30 29 28 28 29 30 31 31 30 31 32 32 33 33 33 33 32 32 32 32 33 34 35 35 35 36 36 35 34 34 34 34 34 33 33 32 32 31 31 32 32 32 32 32 34 35 36 37 36 34 35 36 35 35 35 35 35 35 36 38 40 40 40 40 41 42 42
Wind_Direction
127 128 129 129 127 126 127 130 131 131 130 128 127 126 124 121 118 114 110 107 103 101 101 102 104 107 111 115 121 126 128 129 132 132 130 128 125 124 123 122 118 113 107 102 98 93 87 79 74 70 67 65 63 60 59 57 56 54 53 52 50 48 46 47 49 53 59 58 49 41 38 35 32 28 26 25 25 24 23 24 24 22 21 20 17
125 126 126 124 124 126 128 129 129 128 125 124 124 124 123 120 115 110 108 104 100 98 99 99 102 107 113 120 126 129 131 133 135 133 131 128 126 125 124 121 116 110 104 100 95 88 81 74 68 65 61 58 54 51 49 49 49 49 49 49 49 46 44 43 44 49 58 63 53 42 38 36 33 29 25 23 22 22 21 21 21 19 17 15 12
125 125 124 123 124 127 128 127 126 124 122 123 124 124 123 119 113 108 105 101 97 96 97 100 104 107 114 123 128 130 133 136 136 134 131 129 128 127 125 120 115 109 105 101 93 85 78 71 65 61 57 53 50 47 44 42 42 43 43 44 45 45 43 41 41 46 56 65 56 41 39 37 32 29 26 23 20 21 21 21 20 18 14 12 10
125 124 123 124 126 127 126 125 124 123 123 122 122 123 121 117 112 110 107 102 97 96 97 101 105 111 118 124 128 133 137 138 137 135 133 131 129 128 124 120 116 113 108 102 94 85 76 67 61 57 54 52 50 46 43 41 40 39 38 39 40 41 41 39 40 47 56 64 55 40 41 40 31 26 24 23 20 20 21 22 20 17 13 10 9
125 124 124 125 126 125 124 125 126 126 124 122 122 121 119 115 113 114 112 107 101 99 99 101 107 115 122 126 131 137 140 139 138 137 135 133 131 129 126 121 118 115 109 102 92 82 73 63 57 53 52 51 49 46 44 42 40 38 37 36 35 36 37 37 40 48 58 61 48 38 41 41 31 23 20 21 21 21 22 21 17 14 12 9 9
126 125 126 126 125 125 125 127 128 126 124 122 121 119 118 116 115 115 113 105 101 101 103 106 112 119 124 128 135 139 140 141 140 140 139 136 134 133 129 123 119 114 108 99 88 77 67 58 53 50 49 48 46 44 43 42 40 37 36 34 33 33 35 37 40 47 53 51 41 38 42 39 30 22 20 23 24 24 23 18 13 9 8 8 9
127 127 127 126 125 124 125 127 126 124 122 119 116 114 112 109 107 109 106 99 98 103 108 111 115 120 125 130 137 141 143 145 145 144 143 140 138 137 133 128 122 116 108 97 86 76 64 54 48 45 45 43 41 40 39 38 35 33 32 32 31 31 34 37 41 47 45 40 38 39 43 39 31 25 23 27 28 25 20 14 7 4 4 6 10
127 128 126 124 123 123 123 124 124 122 117 114 111 110 108 106 106 107 105 100 99 106 112 115 120 125 129 132 138 143 146 150 151 149 146 144 142 140 138 133 128 121 113 100 87 76 62 52 45 40 38 37 37 36 35 33 31 28 26 27 27 28 32 35 42 48 41 35 36 39 42 38 32 29 28 29 27 21 13 6 2 1 3 7 14
125 124 122 122 123 123 123 123 121 117 113 110 110 110 112 115 116 115 112 110 110 112 112 112 119 127 131 135 141 147 152 156 157 154 150 148 147 145 144 141 136 130 121 107 90 71 55 47 42 36 33 31 31 31 30 28 27 25 21 21 21 23 28 33 41 46 38 33 34 39 41 37 34 33 30 27 21 11 3 0 0 2 5 11 21
122 121 121 121 121 122 123 121 117 114 112 111 111 114 119 125 125 123 123 122 122 120 113 109 110 115 124 135 144 151 158 161 161 159 155 153 152 151 151 149 145 140 133 119 95 66 45 40 36 30 27 25 24 23 22 21 21 21 18 17 17 19 23 29 38 43 35 31 33 37 39 36 35 34 29 22 13 4 1 4 7 8 11 19 30
121 121 121 122 122 123 122 119 116 115 114 115 117 123 129 133 130 128 130 131 128 122 114 108 101 99 109 128 141 152 160 163 163 164 161 157 155 155 155 154 152 148 141 128 99 62 36 32 29 23 21 19 16 15 14 15 16 16 15 14 14 16 19 23 32 37 33 33 34 36 37 35 36 33 24 16 10 5 7 13 17 18 20 29 42
122 123 123 124 124 123 122 120 119 119 119 121 126 132 137 138 132 128 133 135 129 119 111 102 95 95 101 116 130 147 161 164 163 166 166 159 157 157 159 158 158 156 146 130 93 49 28 22 20 16 13 11 8 7 7 8 10 11 11 12 11 12 15 19 25 30 32 35 36 34 34 34 34 28 19 15 14 12 14 21 24 26 29 40 53
124 125 125 125 124 122 121 120 120 120 121 124 129 134 137 136 131 128 135 137 129 119 110 100 96 97 104 113 123 139 156 164 163 165 167 163 160 159 159 159 160 158 143 122 86 37 16 8 8 5 3 2 360 359 360 2 4 4 6 8 8 8 11 14 20 25 30 35 36 33 33 33 31 24 18 19 20 19 20 25 28 30 36 50 61
124 125 126 125 123 120 119 118 118 118 119 121 126 130 132 132 132 130 132 133 127 121 112 105 102 101 106 112 120 133 144 153 158 160 164 167 174 171 159 158 157 154 137 102 71 23 359 351 350 350 350 352 351 351 352 355 358 358 0 3 3 5 7 11 16 22 30 35 34 32 32 31 29 24 21 23 26 24 22 26 30 34 42 59 69
123 124 124 124 122 119 118 117 117 118 119 120 122 124 126 127 128 128 128 130 129 127 121 117 117 116 114 112 113 119 125 135 146 153 161 167 180 202 187 169 158 141 124 86 32 350 337 333 333 335 337 341 341 343 346 350 352 352 355 358 359 1 4 8 13 20 29 36 34 31 30 31 30 24 23 27 29 26 22 25 31 36 48 66 75
125 126 125 124 121 119 117 116 117 118 119 120 120 121 123 123 125 126 129 133 135 137 134 130 131 128 123 119 116 116 116 121 131 140 150 158 172 204 227 226 236 286 43 20 340 324 319 318 321 324 327 330 334 338 342 346 347 346 348 351 353 356 1 6 11 19 29 35 33 31 31 33 32 26 25 29 31 27 23 25 30 38 52 71 78
130 130 129 125 120 118 116 116 117 118 118 119 120 121 122 123 125 130 136 139 142 147 145 142 142 138 130 124 119 118 118 119 120 123 130 138 154 184 226 252 257 274 298 310 314 315 312 312 314 316 320 327 333 335 337 340 340 339 340 342 346 352 360 5 9 18 30 34 33 31 32 35 33 28 27 30 31 28 24 25 29 39 56 73 79
134 132 129 124 120 118 117 116 117 117 117 120 125 127 126 125 127 131 139 146 151 154 153 150 150 147 141 133 126 122 122 124 124 124 124 127 138 155 180 237 258 265 279 288 298 304 305 306 309 313 321 329 331 331 332 334 334 332 332 336 342 351 360 5 7 17 30 34 32 31 34 37 35 30 29 33 33 29 27 27 30 41 58 75 81
133 131 129 125 123 120 117 116 117 117 119 124 129 129 128 129 133 135 140 147 156 160 158 155 154 152 149 143 137 134 133 134 135 136 136 134 136 141 152 188 227 244 261 276 286 293 295 300 307 315 325 328 326 326 329 330 329 327 328 333 342 352 1 4 7 18 32 35 33 32 35 39 37 32 33 37 37 32 30 32 35 44 59 77 83
137 136 135 131 127 123 120 119 119 121 125 130 131 129 127 130 136 142 145 149 156 164 162 156 156 156 154 149 147 146 144 143 143 144 148 146 141 144 155 175 205 235 252 263 269 274 281 289 301 313 322 322 320 322 327 328 327 328 329 332 341 352 360 4 8 21 35 37 34 34 38 41 39 35 37 42 41 36 35 37 41 48 59 76 84
147 145 142 138 133 128 125 124 124 125 125 125 124 125 128 132 140 147 150 153 157 162 164 159 159 161 161 157 156 157 156 153 151 150 152 156 154 152 161 171 186 213 236 253 260 265 273 284 296 306 311 312 312 316 321 325 328 330 329 332 339 349 357 4 13 29 41 40 37 36 40 45 42 38 42 46 45 40 39 42 47 51 58 73 81
150 147 143 138 135 129 124 122 120 118 114 112 114 122 133 142 150 153 154 157 160 162 163 163 164 168 169 166 164 166 166 164 163 160 160 167 170 172 179 183 191 209 228 247 259 268 278 291 302 306 306 307 310 315 318 321 325 326 328 333 340 348 357 10 26 42 47 43 40 39 42 49 47 42 46 49 49 46 44 46 51 54 58 68 75
146 143 138 133 128 122 117 112 107 105 103 106 118 131 144 153 158 158 156 159 163 166 167 168 170 174 176 175 172 172 174 173 176 181 182 184 185 186 192 202 214 225 240 256 265 274 284 293 303 308 309 309 311 314 315 316 320 325 330 337 343 348 0 21 43 53 54 48 43 41 44 50 51 47 49 52 52 51 50 52 54 56 59 65 69
144 140 135 127 121 115 110 105 98 98 103 114 134 149 155 161 163 162 162 164 166 169 172 174 176 179 182 183 180 178 180 182 187 192 198 204 206 203 203 213 226 234 248 263 272 280 286 292 300 307 310 311 312 313 311 313 322 330 334 338 343 352 4 24 49 61 58 51 43 40 46 51 53 53 52 53 55 55 56 57 58 58 59 63 64
147 143 138 133 128 124 121 120 116 112 115 128 150 165 164 163 163 163 167 170 169 172 177 180 180 184 189 190 188 186 186 191 197 201 206 211 218 222 221 227 234 238 246 259 270 278 284 292 297 301 306 309 311 310 310 315 325 331 334 339 348 357 9 24 48 60 52 46 37 33 43 49 52 55 53 53 56 57 58 61 61 58 56 57 56
157 154 153 150 148 147 144 144 143 143 143 130 143 155 157 154 154 159 170 176 173 176 183 186 186 188 194 197 195 192 194 199 204 210 214 216 222 229 232 237 243 245 250 260 270 274 279 286 290 293 299 304 306 307 310 315 322 329 336 345 355 3 13 27 48 54 42 37 24 21 34 37 40 49 48 47 55 57 58 59 59 55 50 48 46
167 166 167 166 164 163 162 160 164 168 212 327 6 83 107 133 143 152 167 181 181 181 190 197 197 195 199 203 203 200 202 208 212 218 224 225 228 232 235 241 246 249 253 259 265 269 273 278 282 287 294 299 302 305 308 313 318 326 337 347 359 5 11 26 53 55 42 32 11 11 22 23 22 29 20 5 35 48 50 50 48 45 39 35 33
175 177 179 182 184 187 190 198 229 266 314 332 360 46 55 91 121 146 164 178 189 192 200 208 210 209 211 215 216 213 216 226 235 238 239 240 242 244 246 247 251 255 259 261 263 268 273 276 279 284 291 296 299 303 307 312 317 324 334 345 355 3 10 32 68 74 56 30 10 14 17 15 13 15 356 319 340 16 28 34 31 28 23 19 18
189 194 199 206 218 239 260 276 291 304 321 335 13 53 46 78 102 126 158 166 183 202 212 216 214 214 218 224 225 224 229 242 251 252 252 252 253 255 256 259 263 267 271 272 271 271 273 277 283 287 288 293 301 305 307 311 317 323 331 340 346 354 13 71 115 114 75 13 5 13 13 11 13 13 354 316 306 319 334 349 356 359 1 360 2
209 217 227 236 249 268 283 293 302 308 317 328 42 100 91 99 107 120 142 151 169 207 225 229 222 214 215 222 229 234 241 247 249 250 253 254 256 259 262 268 276 281 287 290 290 287 284 283 289 293 291 292 298 303 305 308 316 323 327 332 335 336 330 172 171 178 188 332 358 10 10 12 16 15 1 330 302 292 298 313 324 330 335 339 344
228 238 248 258 268 278 286 294 302 307 309 310 311 137 128 122 118 118 120 121 131 181 244 244 239 230 222 226 235 241 246 251 250 249 253 260 266 272 276 281 288 293 298 301 303 300 295 292 290 291 294 297 297 300 304 309 317 322 323 321 314 299 263 211 192 197 227 311 353 7 7 11 13 10 4 349 323 304 301 308 315 320 322 325 328
237 245 253 263 272 280 286 291 295 298 294 275 224 177 160 142 132 131 128 120 112 96 319 291 276 260 242 243 251 253 255 262 267 270 274 277 281 285 289 292 296 298 299 298 299 297 294 295 292 286 289 294 298 301 306 311 315 315 314 308 297 281 261 235 211 213 247 294 335 353 354 358 1 356 353 349 338 325 317 315 313 311 311 313 314
239 243 249 256 264 270 276 282 283 276 263 239 219 205 195 182 165 162 166 167 163 172 302 318 312 307 295 287 289 292 291 292 295 297 297 295 294 294 296 298 298 298 296 294 296 296 293 294 294 290 286 287 291 293 297 302 305 302 300 295 286 275 260 240 219 223 239 263 291 313 321 331 338 337 336 336 335 334 329 320 310 303 300 300 301
246 250 254 255 257 259 261 265 261 244 233 222 216 215 214 212 207 203 210 212 215 229 249 274 292 300 306 308 309 309 308 306 305 304 302 302 302 302 303 303 301 299 298 299 300 301 301 297 295 297 298 295 294 292 290 294 296 294 289 280 272 262 248 232 223 228 241 256 273 288 302 314 321 323 326 328 331 332 328 320 310 300 294 290 290
252 251 251 249 251 263 265 254 239 229 230 226 221 219 219 221 225 228 233 238 243 253 261 268 276 283 290 296 301 304 305 305 304 301 298 296 295 296 299 299 299 301 302 303 305 305 309 310 304 303 306 304 303 301 297 295 295 293 287 278 271 265 253 240 232 237 250 263 274 288 299 307 313 314 317 321 324 322 317 315 313 308 300 291 287
238 235 234 227 231 257 269 260 248 235 231 234 234 233 228 226 232 238 243 250 255 261 264 266 271 280 288 291 292 293 294 296 298 298 297 295 293 294 295 295 297 299 300 300 303 307 312 318 316 310 308 306 305 303 299 299 298 296 293 288 282 276 266 257 253 253 259 267 275 285 293 300 304 304 306 309 311 309 306 306 309 310 307 301 294
228 229 232 223 220 242 263 262 260 252 243 242 243 245 245 241 241 243 247 252 256 261 267 272 279 284 287 287 284 282 282 283 286 288 290 291 293 295 295 295 297 298 297 297 300 305 308 309 311 309 305 303 303 299 294 296 299 298 296 295 291 285 277 270 270 272 275 278 281 285 290 294 298 299 300 302 302 301 300 301 303 305 304 301 297
224 228 235 229 225 238 248 248 252 255 257 257 250 247 248 249 251 251 252 255 257 262 269 276 278 276 276 277 277 278 280 281 283 285 287 287 288 290 291 292 293 294 295 296 297 299 299 299 301 301 300 298 298 296 292 293 295 295 293 291 286 284 283 284 283 283 284 287 290 291 293 295 297 298 298 298 297 297 297 298 300 300 298 295 292
223 227 233 232 234 241 245 247 251 252 255 257 253 249 246 245 250 253 255 258 260 263 265 263 260 259 261 264 265 267 270 272 276 281 283 283 283 284 283 282 283 285 287 289 291 291 290 290 291 292 292 291 290 290 289 287 287 287 288 289 287 283 284 287 289 287 286 288 291 293 294 295 296 296 295 295 294 294 295 296 297 296 295 293 289
222 224 229 232 237 243 245 248 250 248 248 252 254 252 246 242 244 247 251 256 259 261 260 258 259 259 260 260 260 261 263 265 269 275 279 280 279 279 278 277 277 280 282 284 285 285 283 282 282 282 282 282 281 281 282 281 280 281 282 286 289 289 288 287 287 287 287 289 290 291 293 293 293 293 293 293 293 293 294 295 295 294 293 292 290
226 225 228 232 237 242 243 241 243 245 247 249 254 254 250 246 246 246 249 253 255 256 256 257 259 261 263 262 262 262 263 264 267 270 273 274 273 274 277 280 281 282 283 285 286 287 286 285 284 283 283 283 281 278 277 276 276 277 277 279 284 288 290 291 290 289 289 291 292 293 295 296 296 296 296 296 296 294 293 293 293 293 293 293 293
230 229 229 232 235 239 242 241 242 246 247 249 253 256 256 254 253 252 254 256 256 255 255 256 256 258 262 264 265 265 265 265 265 266 267 269 271 274 276 278 279 280 282 284 286 288 290 292 293 293 292 289 285 281 280 279 278 277 276 277 279 282 284 287 290 291 290 289 291 294 297 299 299 299 300 300 298 296 295 293 293 293 293 295 296
236 234 233 234 236 238 241 243 245 247 247 247 250 253 255 256 256 255 256 258 259 256 255 257 258 259 262 263 264 265 266 266 265 266 269 271 274 277 278 277 278 280 283 285 285 285 288 291 293 295 294 292 288 286 285 284 283 282 281 281 282 283 283 284 287 290 291 288 287 290 293 295 296 296 297 296 295 294 294 293 292 292 293 294 295
243 242 241 240 240 240 242 244 246 247 248 249 250 251 253 255 257 257 256 258 259 259 257 257 258 259 261 262 264 265 267 268 269 270 271 272 275 277 278 280 282 284 286 286 286 286 287 287 288 289 289 289 289 288 287 287 287 287 287 286 286 286 286 285 285 288 290 290 289 288 289 290 292 292 293 292 291 291 291 291 291 292 293 293 294
249 248 248 247 245 243 243 245 246 247 248 250 252 253 253 255 256 256 257 259 261 261 261 261 261 261 262 263 265 267 269 270 271 271 272 274 275 277 278 281 283 284 284 284 283 284 284 285 286 286 287 287 288 288 287 287 288 288 288 288 288 288 286 285 283 283 285 288 290 290 289 289 290 291 291 290 289 289 289 290 290 290 291 292 293
254 252 251 250 249 248 247 248 249 250 251 253 255 255 256 258 258 258 259 261 262 263 263 264 264 265 266 268 269 270 272 272 272 273 273 274 275 276 278 280 282 283 283 283 283 283 284 285 286 287 288 288 289 289 288 287 287 287 286 287 288 288 287 286 285 283 283 286 288 289 289 289 290 290 288 287 286 287 288 288 288 288 289 290 291
255 255 254 253 252 252 251 251 251 253 254 255 256 258 258 259 260 260 261 262 263 264 265 265 266 267 268 269 271 272 273 274 275 275 276 276 276 277 278 281 283 284 284 284 284 284 284 284 285 285 286 287 289 290 289 288 287 286 286 286 287 288 288 288 288 287 287 288 289 288 288 290 291 290 288 286 286 286 287 287 287 288 289 290 290
254 255 256 255 254 254 253 253 253 254 255 256 257 258 258 258 259 260 261 261 262 263 264 266 268 269 270 270 271 272 272 274 275 276 277 278 279 279 280 282 283 283 283 283 284 284 285 285 284 283 284 285 286 287 288 288 287 286 285 286 286 287 288 288 288 288 289 290 289 287 286 287 289 289 289 289 288 289 289 289 289 289 290 291 292
250 254 256 256 256 256 256 256 256 256 258 258 259 259 258 258 258 258 260 261 262 263 264 266 269 271 273 273 273 273 273 274 275 276 277 278 278 279 280 281 282 282 282 282 282 283 284 285 285 285 284 284 284 285 286 286 287 287 287 287 286 286 286 287 287 288 289 290 288 286 285 285 285 286 287 289 290 290 290 291 292 292 293 293 293
243 251 255 255 255 257 258 258 258 258 259 259 259 258 258 258 257 257 259 261 263 265 266 267 269 271 273 276 276 275 274 274 274 275 275 276 277 278 280 281 281 281 280 280 280 281 282 282 283 283 283 282 283 283 284 285 286 287 288 289 288 286 285 285 285 286 288 289 288 286 285 284 284 284 285 286 288 289 289 290 291 292 293 294 293
242 248 252 253 254 256 257 258 258 258 259 258 258 258 258 258 259 259 259 259 262 265 266 267 269 270 271 272 273 272 272 272 273 273 273 274 275 276 278 280 280 280 281 281 280 280 280 280 280 281 281 281 281 282 282 283 284 286 287 288 289 288 286 285 284 284 285 287 286 286 286 286 285 285 285 285 285 286 286 287 288 289 290 290 290
Height
5911 5913 5915 5917 5919 5920 5921 5923 5924 5925 5926 5926 5927 5928 5928 5928 5929 5930 5930 5930 5931 5931 5931 5931 5931 5931 5932 5933 5933 5934 5935 5935 5936 5937 5937 5938 5939 5940 5941 5942 5942 5943 5943 5943 5943 5943 5943 5943 5943 5943 5942 5942 5942 5941 5941 5940 5940 5939 5938 5938 5937 5936 5935 5934 5934 5933 5933 5932 5932 5931 5930 5929 5927 5926 5925 5924 5923 5921 5920 5919 5917 5916 5914 5912 5910
5913 5915 5917 5919 5920 5922 5923 5925 5926 5927 5928 5928 5929 5930 5930 5930 5931 5931 5932 5932 5932 5932 5932 5932 5933 5933 5934 5934 5935 5935 5935 5936 5937 5938 5939 5940 5941 5942 5943 5944 5944 5944 5945 5945 5945 5945 5945 5945 5945 5944 5944 5943 5943 5943 5942 5942 5941 5940 5940 5939 5938 5937 5936 5936 5935 5934 5934 5933 5933 5932 5931 5930 5929 5928 5926 5925 5924 5922 5921 5920 5918 5917 5915 5913 5910
5916 5918 5919 5921 5922 5924 5925 5927 5928 5929 5929 5930 5931 5931 5932 5932 5932 5933 5934 5934 5934 5934 5934 5934 5934 5935 5935 5936 5936 5936 5937 5938 5938 5939 5940 5942 5943 5944 5945 5945 5946 5946 5947 5947 5947 5947 5947 5947 5947 5946 5945 5945 5944 5944 5943 5943 5942 5941 5941 5940 5939 5938 5938 5937 5936 5935 5935 5934 5934 5933 5932 5931 5930 5929 5928 5926 5925 5923 5922 5921 5919 5918 5916 5913 5911
5919 5920 5921 5922 5924 5926 5927 5929 5930 5930 5931 5932 5932 5933 5933 5933 5934 5935 5935 5935 5935 5936 5936 5936 5936 5937 5937 5938 5938 5938 5938 5939 5940 5941 5942 5943 5945 5946 5946 5947 5947 5948 5948 5949 5949 5949 5949 5949 5948 5948 5947 5946 5946 5945 5944 5944 5943 5942 5942 5941 5940 5939 5938 5938 5937 5936 5936 5935 5935 5934 5933 5932 5930 5929 5928 5927 5926 5924 5923 5922 5920 5919 5917 5915 5913
5921 5922 5923 5925 5926 5927 5929 5930 5931 5932 5932 5933 5934 5934 5935 5935 5935 5936 5936 5937 5937 5937 5937 5937 5938 5938 5939 5940 5940 5940 5940 5941 5942 5943 5944 5945 5946 5947 5947 5948 5948 5949 5950 5950 5950 5950 5950 5950 5949 5949 5948 5948 5947 5946 5945 5945 5944 5943 5942 5942 5941 5939 5938 5938 5937 5937 5936 5936 5936 5935 5934 5932 5931 5930 5929 5928 5926 5925 5924 5922 5921 5920 5918 5916 5914
5922 5924 5925 5926 5928 5929 5930 5931 5932 5933 5933 5934 5935 5935 5936 5936 5936 5937 5938 5938 5938 5938 5938 5939 5940 5940 5941 5941 5941 5941 5942 5942 5943 5944 5945 5946 5947 5948 5948 5949 5950 5950 5951 5951 5951 5951 5951 5951 5950 5950 5949 5949 5948 5947 5947 5946 5945 5944 5943 5942 5941 5940 5939 5938 5938 5937 5937 5937 5936 5935 5934 5933 5931 5930 5929 5928 5927 5926 5924 5923 5922 5920 5919 5917 5915
5923 5925 5926 5928 5929 5931 5932 5933 5934 5934 5935 5935 5936 5936 5937 5938 5938 5939 5939 5939 5939 5940 5940 5941 5941 5942 5943 5943 5943 5943 5943 5944 5945 5945 5946 5947 5948 5948 5949 5950 5951 5951 5952 5952 5952 5952 5952 5952 5951 5950 5950 5949 5949 5948 5948 5947 5946 5945 5944 5943 5942 5941 5940 5939 5938 5938 5938 5937 5936 5935 5934 5933 5932 5931 5930 5929 5928 5926 5925 5924 5922 5921 5919 5918 5916
5925 5927 5928 5930 5931 5932 5934 5934 5935 5935 5936 5936 5937 5938 5938 5939 5940 5940 5940 5940 5941 5942 5942 5942 5943 5944 5944 5944 5944 5944 5945 5946 5946 5947 5947 5948 5949 5949 5950 5951 5952 5952 5952 5953 5953 5953 5953 5952 5952 5951 5951 5950 5950 5949 5948 5947 5946 5945 5945 5944 5943 5942 5941 5940 5939 5939 5938 5937 5937 5936 5935 5934 5932 5931 5930 5929 5928 5927 5926 5924 5923 5921 5920 5918 5917
5927 5929 5930 5932 5933 5934 5935 5935 5936 5936 5936 5937 5938 5939 5940 5940 5941 5941 5941 5942 5942 5943 5944 5944 5944 5945 5945 5945 5945 5946 5946 5947 5948 5948 5948 5949 5950 5950 5951 5952 5952 5953 5953 5953 5953 5953 5953 5953 5952 5952 5951 5951 5950 5950 5949 5948 5947 5946 5945 5944 5943 5942 5941 5940 5940 5939 5939 5938 5937 5936 5935 5934 5933 5932 5931 5930 5929 5928 5926 5925 5923 5922 5920 5919 5918
5929 5930 5932 5933 5934 5935 5936 5936 5937 5937 5937 5938 5939 5940 5941 5941 5941 5941 5942 5943 5944 5944 5945 5945 5946 5946 5947 5947 5947 5947 5948 5948 5949 5949 5949 5950 5950 5951 5951 5952 5952 5953 5953 5953 5953 5953 5954 5953 5953 5953 5952 5952 5951 5950 5949 5948 5947 5947 5946 5945 5944 5943 5942 5941 5940 5939 5939 5938 5937 5936 5935 5934 5933 5932 5931 5930 5929 5928 5926 5925 5924 5922 5921 5920 5919
5931 5932 5933 5934 5935 5936 5937 5937 5938 5938 5939 5939 5940 5941 5942 5942 5942 5942 5943 5944 5945 5945 5946 5946 5947 5948 5949 5949 5948 5949 5949 5950 5950 5951 5951 5951 5951 5952 5952 5953 5953 5953 5954 5954 5954 5954 5954 5954 5953 5953 5953 5952 5951 5951 5950 5949 5948 5947 5946 5945 5944 5943 5942 5941 5940 5939 5939 5938 5937 5936 5935 5934 5933 5932 5931 5930 5929 5928 5926 5925 5924 5923 5921 5921 5920
5933 5934 5935 5936 5936 5937 5938 5938 5939 5940 5940 5940 5941 5942 5942 5943 5943 5943 5944 5945 5946 5946 5946 5947 5948 5949 5950 5951 5950 5951 5951 5951 5952 5952 5952 5953 5953 5953 5953 5953 5954 5954 5954 5954 5955 5955 5955 5954 5954 5954 5953 5953 5952 5951 5950 5949 5948 5947 5946 5945 5944 5943 5941 5940 5940 5939 5939 5938 5937 5936 5935 5934 5933 5933 5932 5931 5929 5928 5926 5925 5924 5923 5922 5922 5921
5934 5935 5936 5937 5938 5939 5939 5940 5940 5941 5941 5941 5942 5943 5943 5943 5944 5944 5945 5946 5946 5946 5947 5948 5949 5950 5951 5952 5952 5952 5952 5953 5953 5953 5954 5954 5954 5954 5954 5954 5954 5954 5955 5955 5955 5955 5955 5955 5954 5954 5953 5953 5952 5951 5950 5949 5948 5947 5946 5945 5944 5943 5941 5941 5940 5939 5939 5938 5937 5936 5936 5935 5934 5933 5932 5931 5929 5928 5927 5926 5925 5924 5923 5922 5922
5936 5937 5938 5939 5940 5941 5941 5941 5941 5942 5942 5943 5943 5943 5944 5944 5944 5945 5946 5946 5946 5947 5948 5949 5950 5952 5952 5952 5952 5953 5953 5954 5954 5955 5955 5955 5955 5955 5955 5955 5955 5955 5955 5955 5955 5955 5955 5955 5954 5954 5953 5953 5952 5951 5950 5949 5948 5947 5946 5945 5944 5943 5942 5941 5940 5939 5939 5938 5937 5937 5936 5935 5934 5933 5932 5931 5930 5929 5927 5926 5925 5924 5924 5923 5923
5938 5940 5941 5942 5942 5942 5942 5942 5943 5943 5943 5944 5944 5944 5944 5944 5945 5945 5946 5946 5947 5947 5948 5950 5951 5952 5953 5953 5953 5954 5954 5954 5954 5955 5955 5956 5956 5956 5956 5956 5956 5956 5956 5956 5956 5955 5955 5955 5954 5954 5953 5952 5951 5951 5950 5949 5948 5947 5946 5945 5944 5943 5942 5941 5940 5940 5939 5939 5938 5937 5936 5935 5934 5933 5933 5932 5930 5929 5928 5927 5926 5925 5924 5924 5924
5941 5942 5943 5943 5943 5944 5944 5944 5944 5945 5944 5944 5944 5945 5945 5945 5945 5946 5946 5947 5948 5948 5949 5950 5952 5952 5953 5953 5953 5954 5954 5954 5955 5955 5956 5956 5956 5957 5957 5957 5957 5957 5956 5956 5956 5955 5955 5955 5954 5953 5953 5952 5951 5951 5950 5949 5949 5948 5947 5946 5944 5943 5942 5941 5941 5940 5940 5939 5938 5937 5937 5936 5935 5934 5933 5932 5931 5930 5929 5928 5926 5926 5925 5925 5925
5942 5944 5945 5945 5945 5945 5945 5945 5946 5946 5945 5945 5945 5945 5945 5945 5946 5946 5947 5948 5948 5949 5950 5951 5952 5952 5952 5953 5953 5954 5954 5954 5955 5955 5956 5956 5956 5957 5957 5957 5957 5957 5957 5956 5956 5955 5955 5954 5954 5953 5952 5952 5951 5950 5950 5949 5948 5948 5946 5945 5944 5943 5943 5942 5941 5940 5940 5939 5939 5938 5937 5936 5935 5934 5933 5932 5931 5931 5930 5928 5927 5926 5926 5926 5926
5944 5945 5946 5946 5946 5946 5946 5946 5946 5946 5946 5946 5946 5946 5946 5946 5947 5947 5948 5949 5949 5950 5951 5951 5951 5952 5952 5952 5953 5953 5954 5954 5954 5955 5955 5955 5956 5956 5957 5957 5957 5957 5956 5956 5955 5955 5954 5953 5953 5952 5952 5951 5951 5950 5950 5949 5948 5947 5946 5945 5944 5943 5943 5942 5941 5941 5940 5940 5939 5938 5937 5937 5936 5935 5934 5933 5932 5931 5930 5929 5928 5927 5927 5927 5927
5945 5946 5946 5947 5947 5947 5947 5947 5947 5947 5947 5947 5947 5947 5947 5947 5947 5948 5949 5949 5950 5951 5951 5951 5951 5952 5952 5952 5952 5952 5953 5953 5954 5954 5955 5955 5955 5956 5957 5957 5957 5957 5956 5955 5955 5954 5953 5953 5952 5952 5951 5951 5951 5950 5949 5949 5948 5947 5946 5945 5944 5943 5943 5942 5942 5941 5941 5940 5939 5939 5938 5937 5936 5935 5934 5934 5933 5932 5931 5930 5929 5928 5928 5928 5928
5946 5947 5948 5948 5948 5947 5947 5948 5948 5948 5948 5948 5948 5947 5947 5948 5948 5949 5949 5949 5950 5951 5951 5951 5952 5952 5952 5952 5952 5952 5952 5953 5953 5954 5954 5955 5955 5956 5956 5956 5956 5956 5956 5955 5955 5954 5953 5952 5952 5951 5951 5951 5950 5950 5949 5948 5947 5947 5946 5945 5944 5944 5943 5943 5942 5941 5941 5940 5940 5939 5938 5937 5936 5936 5935 5934 5933 5933 5932 5931 5930 5929 5929 5929 5929
5948 5948 5949 5949 5949 5949 5949 5949 5949 5949 5948 5948 5948 5947 5948 5948 5949 5949 5950 5950 5950 5951 5952 5952 5952 5952 5952 5952 5952 5952 5953 5953 5953 5953 5954 5954 5955 5956 5956 5956 5956 5956 5955 5954 5954 5953 5952 5952 5951 5951 5951 5950 5950 5949 5948 5947 5947 5946 5946 5945 5945 5944 5943 5943 5942 5942 5941 5940 5940 5939 5938 5937 5937 5936 5935 5935 5934 5934 5933 5932 5931 5930 5930 5930 5930
5948 5949 5949 5949 5950 5950 5950 5949 5949 5949 5948 5948 5948 5948 5948 5949 5949 5950 5950 5950 5950 5951 5951 5951 5952 5952 5952 5952 5952 5952 5952 5953 5953 5954 5954 5954 5955 5955 5955 5956 5956 5955 5955 5954 5953 5953 5952 5952 5951 5951 5951 5950 5949 5949 5948 5947 5947 5946 5946 5945 5944 5943 5943 5943 5942 5942 5941 5940 5940 5939 5938 5937 5937 5936 5936 5935 5934 5934 5934 5933 5932 5932 5931 5931 5931
5948 5948 5948 5949 5949 5949 5949 5949 5949 5948 5948 5948 5948 5949 5949 5950 5950 5950 5950 5950 5950 5950 5951 5951 5951 5951 5951 5951 5951 5951 5952 5952 5953 5953 5954 5954 5954 5955 5955 5955 5955 5954 5954 5954 5953 5952 5952 5951 5951 5951 5950 5950 5949 5948 5948 5947 5946 5946 5945 5945 5944 5943 5943 5943 5942 5942 5941 5940 5940 5939 5938 5937 5937 5936 5936 5935 5935 5935 5934 5934 5933 5933 5932 5932 5932
5947 5947 5947 5948 5948 5948 5948 5948 5948 5948 5949 5949 5950 5950 5950 5951 5951 5950 5950 5950 5950 5950 5950 5950 5951 5951 5951 5951 5951 5951 5952 5952 5952 5953 5953 5954 5954 5955 5955 5955 5954 5954 5953 5953 5953 5952 5951 5951 5950 5950 5949 5949 5948 5948 5947 5946 5946 5945 5945 5944 5944 5943 5943 5943 5942 5941 5941 5940 5940 5939 5938 5937 5937 5936 5936 5936 5935 5935 5935 5934 5934 5934 5933 5933 5932
5946 5946 5947 5947 5947 5948 5948 5949 5949 5950 5950 5950 5951 5951 5951 5951 5950 5950 5950 5950 5950 5950 5950 5950 5950 5950 5950 5950 5951 5951 5952 5952 5952 5953 5953 5953 5954 5954 5955 5954 5954 5953 5953 5953 5952 5952 5951 5950 5950 5949 5948 5948 5947 5947 5946 5945 5945 5945 5944 5944 5944 5943 5943 5942 5942 5941 5941 5940 5940 5939 5938 5937 5937 5936 5936 5936 5935 5935 5935 5934 5934 5934 5934 5933 5933
5946 5947 5947 5948 5949 5949 5950 5950 5951 5951 5951 5951 5951 5951 5951 5950 5950 5949 5949 5950 5950 5950 5950 5950 5950 5950 5950 5950 5950 5951 5951 5951 5952 5952 5952 5953 5953 5954 5954 5954 5954 5953 5953 5953 5952 5952 5951 5950 5949 5948 5948 5947 5947 5946 5946 5945 5945 5945 5944 5944 5944 5943 5943 5942 5941 5941 5941 5941 5940 5939 5938 5938 5937 5936 5936 5936 5936 5935 5935 5935 5934 5934 5934 5934 5933
5948 5949 5949 5950 5950 5951 5951 5952 5952 5952 5951 5951 5950 5950 5950 5949 5949 5949 5949 5949 5949 5949 5949 5950 5950 5950 5950 5950 5950 5951 5951 5951 5951 5952 5952 5952 5953 5953 5953 5953 5953 5953 5953 5952 5952 5951 5950 5949 5949 5948 5948 5947 5947 5946 5946 5945 5945 5945 5945 5944 5943 5943 5942 5942 5942 5941 5941 5941 5940 5939 5938 5938 5938 5937 5936 5936 5936 5936 5935 5935 5935 5935 5934 5934 5933
5950 5950 5951 5951 5951 5951 5952 5952 5952 5951 5951 5950 5949 5948 5949 5949 5949 5949 5949 5949 5949 5949 5949 5950 5950 5950 5950 5951 5951 5951 5951 5951 5952 5952 5952 5952 5952 5952 5952 5952 5952 5952 5952 5952 5951 5951 5950 5950 5949 5949 5948 5948 5947 5946 5946 5945 5945 5945 5944 5944 5943 5943 5942 5942 5942 5941 5941 5940 5940 5939 5938 5938 5937 5937 5936 5936 5936 5936 5936 5935 5935 5934 5934 5934 5933
5950 5950 5951 5951 5951 5951 5951 5951 5951 5950 5950 5949 5948 5948 5948 5948 5948 5949 5949 5949 5949 5949 5949 5950 5950 5950 5951 5951 5951 5951 5952 5952 5952 5952 5952 5951 5951 5951 5951 5951 5951 5951 5951 5951 5951 5951 5950 5950 5949 5949 5948 5948 5947 5946 5945 5945 5944 5944 5944 5943 5943 5942 5942 5942 5941 5941 5940 5940 5939 5938 5938 5937 5937 5936 5936 5936 5936 5936 5935 5934 5934 5934 5933 5933 5933
5949 5950 5950 5950 5951 5951 5951 5950 5950 5950 5949 5949 5948 5948 5948 5948 5949 5949 5949 5949 5949 5950 5950 5950 5950 5950 5951 5951 5951 5951 5951 5952 5952 5951 5951 5951 5951 5951 5951 5951 5950 5950 5950 5950 5951 5950 5950 5949 5949 5948 5948 5947 5946 5945 5945 5944 5944 5944 5943 5942 5942 5941 5941 5941 5940 5940 5939 5939 5938 5938 5937 5937 5937 5936 5936 5936 5935 5935 5934 5934 5933 5933 5933 5933 5932
5948 5949 5949 5949 5949 5950 5950 5950 5949 5949 5949 5949 5948 5948 5948 5949 5949 5949 5949 5949 5949 5950 5950 5950 5950 5951 5951 5951 5951 5951 5951 5951 5951 5951 5951 5950 5950 5950 5950 5950 5950 5950 5949 5949 5949 5950 5949 5949 5949 5948 5947 5946 5946 5945 5944 5944 5943 5943 5942 5941 5941 5940 5940 5939 5939 5939 5939 5938 5938 5937 5937 5937 5936 5936 5936 5935 5935 5934 5934 5933 5933 5933 5933 5932 5932
5947 5947 5947 5948 5948 5948 5948 5949 5949 5949 5949 5948 5948 5948 5949 5949 5949 5949 5949 5949 5949 5950 5950 5950 5950 5951 5951 5951 5951 5951 5951 5951 5951 5951 5950 5950 5950 5950 5950 5950 5949 5949 5949 5948 5948 5948 5948 5948 5948 5947 5946 5945 5945 5944 5943 5943 5943 5942 5942 5941 5940 5940 5939 5939 5939 5939 5939 5938 5938 5937 5937 5936 5936 5936 5935 5935 5934 5934 5933 5933 5933 5932 5932 5931 5931
5944 5945 5945 5945 5946 5946 5947 5947 5948 5948 5948 5948 5948 5948 5949 5949 5949 5949 5950 5949 5950 5950 5950 5950 5950 5950 5951 5951 5951 5951 5951 5951 5951 5950 5950 5950 5949 5950 5950 5949 5949 5949 5948 5948 5947 5947 5947 5947 5946 5946 5945 5944 5944 5943 5943 5942 5942 5941 5941 5940 5940 5939 5939 5939 5939 5939 5938 5938 5938 5937 5936 5936 5935 5935 5934 5934 5934 5933 5933 5932 5932 5931 5931 5930 5929
5943 5944 5945 5945 5945 5945 5945 5946 5947 5947 5947 5948 5948 5948 5948 5948 5949 5949 5949 5950 5950 5950 5950 5950 5950 5950 5950 5950 5951 5951 5951 5951 5951 5950 5950 5949 5949 5949 5949 5949 5949 5948 5948 5947 5947 5946 5946 5946 5945 5945 5944 5944 5943 5943 5942 5942 5941 5941 5940 5940 5939 5939 5938 5938 5938 5938 5938 5938 5937 5937 5936 5935 5935 5934 5934 5933 5933 5932 5932 5931 5931 5930 5929 5929 5928
5943 5944 5945 5946 5945 5945 5945 5945 5946 5946 5947 5947 5947 5948 5948 5948 5949 5949 5949 5950 5949 5949 5949 5949 5949 5950 5950 5950 5950 5951 5951 5951 5951 5951 5950 5950 5949 5949 5948 5948 5948 5948 5948 5947 5947 5946 5946 5946 5945 5945 5944 5943 5943 5943 5942 5942 5941 5941 5940 5939 5939 5939 5939 5938 5938 5938 5937 5937 5937 5936 5935 5935 5934 5934 5933 5932 5932 5931 5930 5930 5929 5929 5928 5927 5927
5941 5941 5942 5943 5943 5944 5945 5945 5945 5946 5946 5947 5947 5947 5948 5948 5948 5949 5949 5949 5949 5949 5949 5949 5949 5949 5950 5950 5950 5950 5950 5950 5950 5950 5949 5949 5948 5948 5947 5947 5947 5947 5947 5946 5946 5946 5945 5945 5944 5944 5944 5943 5943 5942 5942 5941 5941 5940 5940 5939 5939 5939 5939 5938 5938 5937 5937 5936 5936 5935 5934 5934 5933 5933 5932 5931 5931 5930 5929 5928 5928 5928 5927 5926 5925
5940 5939 5940 5941 5942 5943 5944 5944 5945 5946 5946 5947 5947 5947 5948 5948 5948 5948 5948 5949 5949 5949 5949 5949 5950 5950 5949 5949 5949 5948 5948 5948 5948 5948 5948 5947 5947 5946 5946 5945 5945 5945 5946 5945 5945 5945 5944 5944 5943 5943 5943 5943 5942 5942 5942 5941 5940 5940 5939 5939 5939 5939 5938 5938 5938 5937 5936 5936 5935 5934 5933 5933 5932 5932 5931 5930 5929 5929 5928 5927 5927 5926 5925 5924 5923
5940 5939 5940 5941 5942 5942 5942 5943 5944 5945 5946 5946 5946 5946 5946 5947 5947 5947 5947 5948 5948 5948 5948 5950 5950 5949 5948 5948 5948 5948 5948 5948 5947 5947 5947 5947 5946 5946 5945 5944 5944 5944 5944 5944 5944 5944 5943 5943 5942 5942 5942 5942 5942 5942 5941 5940 5940 5939 5939 5938 5938 5938 5937 5937 5937 5936 5935 5935 5934 5933 5933 5932 5931 5930 5929 5929 5928 5927 5926 5925 5925 5924 5923 5922 5921
5939 5939 5939 5940 5941 5941 5941 5942 5943 5943 5944 5945 5945 5945 5945 5945 5945 5946 5946 5946 5947 5947 5948 5948 5947 5947 5947 5947 5947 5947 5947 5947 5947 5947 5946 5946 5946 5945 5945 5944 5944 5943 5943 5943 5943 5943 5943 5942 5942 5941 5941 5941 5941 5940 5940 5940 5939 5938 5937 5936 5936 5936 5936 5935 5935 5934 5934 5933 5932 5932 5931 5931 5930 5929 5928 5927 5926 5925 5924 5923 5923 5922 5921 5920 5919
5937 5937 5938 5938 5939 5939 5940 5941 5942 5942 5942 5942 5943 5944 5943 5943 5944 5944 5945 5945 5946 5946 5946 5946 5945 5945 5945 5945 5945 5946 5946 5946 5946 5946 5945 5945 5945 5945 5945 5944 5943 5943 5943 5942 5942 5942 5942 5941 5941 5940 5940 5940 5940 5939 5938 5938 5937 5937 5936 5935 5934 5934 5934 5933 5933 5933 5932 5931 5930 5930 5929 5929 5928 5927 5926 5925 5924 5923 5922 5921 5920 5920 5919 5918 5917
5934 5935 5935 5936 5936 5937 5938 5939 5939 5939 5939 5940 5941 5942 5942 5942 5942 5943 5943 5944 5945 5945 5945 5945 5944 5944 5944 5943 5944 5944 5944 5944 5944 5944 5944 5944 5944 5944 5943 5943 5942 5942 5942 5941 5941 5941 5941 5940 5940 5940 5939 5939 5939 5938 5937 5936 5935 5934 5934 5934 5933 5932 5931 5930 5930 5931 5931 5929 5927 5927 5927 5926 5926 5924 5924 5923 5922 5921 5920 5919 5919 5918 5917 5916 5915
5931 5932 5933 5934 5934 5935 5935 5936 5936 5937 5937 5938 5939 5940 5941 5941 5941 5941 5942 5943 5943 5944 5944 5944 5943 5943 5942 5942 5942 5942 5942 5942 5942 5942 5942 5942 5942 5942 5942 5941 5941 5940 5940 5940 5940 5939 5939 5939 5939 5939 5938 5938 5937 5937 5935 5934 5933 5932 5932 5932 5931 5930 5929 5928 5926 5927 5928 5928 5925 5924 5923 5923 5923 5922 5921 5920 5919 5919 5918 5917 5917 5916 5915 5914 5913
5929 5930 5931 5931 5932 5933 5933 5933 5934 5935 5935 5936 5937 5938 5938 5939 5939 5939 5940 5940 5941 5942 5942 5942 5942 5941 5941 5941 5941 5941 5941 5941 5941 5941 5940 5940 5940 5940 5939 5939 5939 5938 5938 5938 5937 5937 5937 5937 5937 5937 5936 5936 5935 5935 5934 5933 5932 5931 5930 5930 5929 5928 5927 5926 5924 5923 5924 5925 5924 5921 5920 5920 5920 5919 5918 5917 5917 5916 5916 5915 5915 5914 5913 5912 5911
5928 5928 5929 5929 5930 5930 5931 5931 5931 5932 5933 5933 5934 5935 5935 5936 5936 5937 5937 5938 5939 5939 5940 5940 5940 5940 5940 5940 5939 5939 5939 5939 5939 5939 5938 5938 5938 5937 5937 5937 5937 5937 5936 5936 5935 5935 5935 5935 5934 5934 5934 5933 5933 5933 5932 5931 5930 5929 5928 5928 5927 5926 5925 5924 5923 5921 5920 5921 5921 5919 5918 5917 5917 5916 5915 5914 5913 5913 5912 5912 5911 5911 5910 5909 5909
5926 5927 5927 5927 5928 5928 5929 5929 5929 5929 5930 5930 5931 5931 5932 5933 5933 5934 5934 5935 5936 5936 5937 5938 5938 5938 5938 5938 5938 5937 5937 5937 5936 5936 5936 5935 5935 5935 5934 5934 5934 5934 5934 5934 5933 5933 5933 5932 5932 5931 5931 5930 5930 5929 5929 5929 5928 5927 5926 5925 5925 5924 5923 5922 5921 5919 5918 5918 5918 5916 5914 5914 5914 5913 5912 5911 5909 5909 5908 5908 5908 5907 5907 5906 5906
5923 5925 5925 5925 5925 5926 5926 5926 5926 5927 5927 5928 5928 5929 5929 5929 5930 5931 5931 5932 5933 5933 5934 5934 5935 5935 5935 5935 5934 5934 5934 5933 5933 5933 5933 5932 5932 5932 5931 5931 5932 5931 5931 5931 5930 5930 5930 5929 5928 5928 5928 5927 5927 5926 5926 5926 5925 5924 5923 5922 5922 5921 5920 5919 5918 5917 5917 5917 5917 5915 5912 5910 5911 5910 5908 5906 5905 5904 5905 5904 5904 5904 5903 5903 5902
5920 5921 5922 5923 5923 5923 5923 5923 5923 5924 5924 5925 5925 5926 5926 5926 5927 5928 5928 5929 5930 5930 5930 5931 5931 5931 5931 5931 5930 5930 5930 5929 5929 5929 5929 5929 5929 5929 5928 5928 5928 5928 5927 5927 5927 5927 5926 5926 5925 5924 5924 5924 5923 5923 5922 5922 5921 5920 5920 5919 5919 5918 5916 5915 5914 5913 5914 5915 5915 5913 5910 5908 5907 5906 5904 5902 5901 5900 5900 5900 5899 5899 5899 5898 5898
5916 5917 5918 5919 5920 5920 5920 5920 5920 5920 5921 5922 5922 5923 5923 5924 5924 5925 5926 5926 5927 5927 5927 5927 5927 5927 5927 5927 5926 5926 5926 5925 5925 5925 5925 5925 5925 5925 5924 5924 5924 5924 5923 5923 5923 5923 5922 5922 5921 5921 5920 5920 5920 5919 5919 5918 5917 5916 5916 5915 5915 5914 5913 5912 5911 5909 5910 5912 5911 5910 5908 5906 5904 5902 5900 5899 5898 5897 5896 5895 5895 5895 5895 5894 5893
5912 5913 5913 5914 5916 5916 5917 5917 5917 5917 5917 5918 5919 5919 5920 5920 5921 5922 5922 5923 5924 5924 5924 5924 5923 5923 5923 5923 5922 5922 5922 5922 5921 5921 5921 5921 5921 5921 5921 5921 5920 5920 5919 5919 5919 5919 5918 5917 5917 5916 5916 5916 5915 5915 5914 5914 5913 5912 5912 5911 5911 5910 5909 5909 5908 5906 5906 5908 5907 5904 5904 5903 5901 5900 5898 5895 5894 5893 5892 5891 5890 5891 5890 5890 5889
5908 5909 5909 5910 5911 5912 5913 5913 5914 5914 5914 5914 5915 5915 5916 5917 5917 5918 5919 5919 5920 5920 5921 5920 5920 5920 5919 5919 5919 5919 5918 5918 5917 5917 5917 5918 5918 5918 5917 5917 5916 5916 5915 5914 5914 5915 5914 5913 5913 5912 5912 5911 5910 5910 5909 5909 5909 5908 5907 5906 5906 5905 5905 5904 5904 5903 5903 5903 5901 5899 5898 5898 5897 5896 5895 5893 5892 5890 5888 5887 5887 5886 5885 5884 5884
5905 5906 5906 5906 5907 5908 5909 5910 5910 5910 5910 5910 5911 5911 5912 5913 5913 5914 5915 5915 5916 5917 5917 5917 5916 5916 5916 5915 5915 5914 5914 5914 5913 5913 5914 5914 5914 5914 5913 5912 5911 5911 5911 5910 5909 5910 5910 5909 5908 5908 5907 5906 5906 5905 5904 5904 5904 5903 5902 5902 5901 5900 5900 5899 5899 5898 5899 5899 5896 5894 5893 5893 5892 5892 5892 5890 5889 5886 5884 5883 5884 5883 5881 5879 5878